Powrót do katalogu

PRSC-EO2

AktywnyNaukaSSO
NORAD 67746·PAYLOAD·🇨🇳 China
Ta nazwa satelity nie została jeszcze potwierdzona przez oficjalne źródła.

Wystrzelony Feb 12, 2026 z South China Sea Launch Area

Loading…

Następne Przeloty (najbliższe 24 godziny)

TLE

ŚwieżeSource: Space-Track

Epoka: Sep 13, 2026, 21:45 UTC

1 67746U 26027A   26256.90630636  .00005193  00000-0  24395-3 0  9995
2 67746  97.5177  24.6299 0008214 263.6561  96.3739 15.20028107 32439

Śledź PRSC-EO2 w czasie rzeczywistym z AllMySat

Download on the App Store